{"data":{"norad_id":59654,"epoch":"2026-09-21T15:26:13.146144Z","epoch_age_seconds":69473,"freshness":"FRESH","line1":"1 59654U 24084A   26264.64320771  .00000705  00000+0  35145-4 0  9990","line2":"2 59654  43.0045  14.9893 0001382 257.9636 102.1061 15.27578535134369","mean_motion":15.27578535,"eccentricity":0.0001382,"inclination_deg":43.0045,"raan_deg":14.9893,"arg_perigee_deg":257.9636,"mean_anomaly_deg":102.1061,"bstar":3.5145e-5,"rev_number":13436,"period_min":94.266839118684,"perigee_km":482.10526625547,"apogee_km":484.00169930491,"semimajor_km":6861.1904827802,"source":"CELESTRAK","updated_at":"2026-09-22T09:00:49.024114Z"}}